Location: La Chaud
(46.1098°N, 1.7333°E)
Time: 23:44:51
(UTC+00:00)

Daily predictions for brighter satellites

Satellite Brightness Start Highest point End
(mag) Time Altitude Azimuth Time Altitude Azimuth Time Altitude Azimuth
USA 229 DEB 4.0 16:28:09 10° NW 16:35:26 67° NE 16:43:10 10° SE
USA 229 4.0 16:28:15 10° NW 16:35:32 66° NE 16:43:15 10° SE
Cosmos 1500 Rocket 3.8 16:35:57 10° N 16:40:17 49° ENE 16:44:33 10° SSE
Spot 1 4.4 16:35:55 10° NNE 16:40:38 65° ESE 16:45:34 10° S
Nadezhda 4 Rocket 4.0 16:35:50 10° N 16:42:10 72° E 16:48:29 10° SSE
SL-24 R/B - RUBIN 2 4.5 16:38:12 10° NNW 16:42:14 29° NE 16:46:04 10° ESE
ATLAS 2AS CENTAUR R/B 4.4 16:36:23 10° WNW 16:42:30 24° NNW 16:48:25 10° NNE
SeaSat 1 4.2 16:38:58 10° N 16:43:05 27° NW 16:47:12 10° WSW
Cosmos 2322 Rocket 4.1 16:42:04 10° NNE 16:43:10 10° NNE 16:44:15 10° NE
Cosmos 990 Rocket 3.9 16:38:59 10° NNW 16:44:13 73° ENE 16:49:22 10° SSE
FengYun 1-2 T 4.3 16:40:27 10° SSE 16:45:56 61° ENE 16:51:24 10° N
Cosmos 1697 Rocket 2.8 16:40:55 10° NNW 16:46:27 56° ENE 16:51:57 10° SE
NOAA 6 4.2 16:44:24 10° SE 16:49:21 51° ENE 16:54:19 10° N
Sich 1 3.8 16:46:09 10° NNE 16:49:56 29° ENE 16:53:43 10° SE
Cosmos 1980 Rocket 2.8 16:45:27 10° NNW 16:50:37 34° NE 16:55:43 10° ESE
Cosmos 2221 2.8 16:46:57 10° SSW 16:51:11 70° W 16:55:30 10° N
Cosmos 1805 Rocket 4.0 16:47:55 10° N 16:52:00 39° ENE 16:56:03 10° SE
Cosmos 2369 4.1 16:47:10 10° NNW 16:52:39 43° NE 16:58:04 10° SE
USA 234 3.3 16:49:26 10° ESE 16:55:57 72° NNE 17:02:28 10° NW
Cosmos 1842 Rocket 3.9 16:51:37 10° SSW 16:56:04 73° W 17:00:34 10° N
CZ-4C R/B 3.3 16:50:09 10° NNW 16:56:41 41° NE 17:04:20 10° ESE
Cosmos 1092 Rocket 4.1 16:51:47 10° N 16:58:04 57° ENE 17:04:16 10° SSE
Cosmos 2084 3.6 16:54:19 10° NW 16:58:38 80° SW 17:03:06 10° SE
NOSS 3-1 (A) 4.2 16:51:33 10° NW 16:59:05 90° SW 17:07:54 10° SE
Cosmos 1812 4.2 16:57:29 10° SE 17:00:09 18° E 17:02:43 10° NE
USA 306 4.1 16:56:34 10° WNW 17:00:16 28° N 17:03:35 12° NE
SL-16 R/B 3.7 16:58:05 10° N 17:01:30 16° NE 17:04:15 12° ENE
ISS -3.3 16:58:43 10° WNW 17:02:01 45° NNE 17:04:59 12° E
Meteor 1-25 Rocket 4.2 16:58:10 10° N 17:03:45 70° ENE 17:09:20 10° SSE
NOSS 2-2 (D) 4.5 16:59:40 10° NNW 17:04:36 51° NE 17:11:23 10° ESE
NOSS 2-2 (E) 4.4 16:59:48 10° NNW 17:04:58 61° NE 17:12:11 10° SE
SMAP 3.0 17:00:42 10° SSE 17:05:19 69° ENE 17:09:57 10° N
Cosmos 2082 Rocket 2.9 17:00:32 10° S 17:05:38 35° ESE 17:10:43 10° NE
Meteor PRIRODA 4.2 17:02:26 10° S 17:06:01 61° W 17:09:38 10° NNW
Cosmos 1939 Rocket 2.8 17:02:26 10° SSE 17:06:32 77° ENE 17:10:38 10° N
CORIOLIS 4.1 17:02:56 10° SSE 17:08:17 67° ENE 17:13:40 10° N
NOAA 12 4.5 17:06:13 10° S 17:11:32 72° WSW 17:16:52 10° NNW
Cosmos 44 Rocket 4.5 17:07:38 10° NNW 17:11:36 23° NE 17:14:23 15° E
CZ-4B DEB 4.2 17:09:13 10° SSE 17:14:40 66° ENE 17:20:07 10° N
Cosmos 2278 4.2 17:11:20 10° NNW 17:16:41 39° NE 17:21:58 10° ESE
Cosmos 1602 3.6 17:13:24 10° N 17:17:15 72° E 17:21:07 10° SSE
USA 307 4.2 17:15:25 10° WNW 17:19:08 28° N 17:21:38 16° NE
AQUARIUS 4.1 17:14:44 10° SSE 17:19:14 80° ENE 17:23:44 10° N
Cosmos 1627 Rocket 4.4 17:13:22 10° N 17:19:33 70° E 17:25:39 10° SSE
Cosmos 540 Rocket 3.4 17:15:31 10° S 17:20:34 69° ESE 17:25:40 10° NNE
Cosmos 2034 Rocket 4.4 17:15:50 10° SSW 17:21:56 66° W 17:28:05 10° N
ARGOS 3.7 17:20:01 10° SE 17:24:56 36° ENE 17:29:50 10° N
Cosmos 2279 Rocket 4.3 17:19:55 10° SSE 17:25:41 42° E 17:31:28 10° NNE
COSMOS 2406 3.2 17:20:28 10° SSW 17:26:13 82° ESE 17:31:59 10° NNE
COSMO-SKYMED 1 3.4 17:23:24 14° NE 17:26:30 31° E 17:30:21 10° SSE
Cosmos 1833 Rocket 2.8 17:21:55 10° SSW 17:27:32 78° WNW 17:33:12 10° NNE
Cosmos 1782 2.7 17:25:06 10° S 17:29:03 67° E 17:33:01 10° NNE
Cosmos 1814 Rocket 4.5 17:25:20 10° S 17:30:10 40° ESE 17:33:44 17° NE
Meteor 2-21 4.3 17:24:26 10° N 17:30:33 75° E 17:36:35 10° SSE
ATLAS 5 CENTAUR R/B 3.1 17:24:06 10° NW 17:31:32 31° NNE 17:33:09 23° ENE
ATLAS CENTAUR R/B 4.1 17:33:42 10° NNW 17:34:43 11° NNW 17:35:45 10° N
Cosmos 1633 Rocket 3.4 17:31:03 10° N 17:35:11 39° ENE 17:39:18 10° SE
Cosmos 1818 4.2 17:30:48 10° NNW 17:35:51 36° NE 17:38:50 21° E
YAOGAN 1 4.4 17:39:35 15° NNE 17:39:35 15° NNE 17:40:42 10° NNE
Cosmos 1898 Rocket 4.4 17:34:12 10° NNW 17:39:18 53° WSW 17:44:21 10° S
CZ-2D R/B 3.1 17:36:10 10° SSE 17:40:01 85° ENE 17:43:52 10° NNW
GEOS 3 Rocket 4.4 17:37:58 22° E 17:40:19 32° NE 17:44:53 10° NNW
USA 308 4.1 17:38:06 10° WNW 17:41:49 28° N 17:43:13 23° NE
Cosmos 1634 Rocket 4.0 17:36:14 10° S 17:42:33 87° E 17:48:55 10° N
SJ-11-01 4.5 17:38:15 10° SE 17:42:47 47° ENE 17:47:21 10° N
COSMOS 2455 2.8 17:37:27 10° SSW 17:43:28 79° ESE 17:48:14 17° NE
PAYLOAD B 4.2 17:38:52 10° SSE 17:44:28 89° ENE 17:50:07 10° NNW
CZ-2C R/B 2.7 17:40:55 10° NNE 17:46:00 52° E 17:51:01 10° S
Cosmos 1500 3.2 17:43:01 10° NNW 17:46:46 78° W 17:50:29 10° S
CZ-4B R/B 3.1 17:41:39 10° SSE 17:47:01 67° ENE 17:52:20 10° N
Cosmos 1151 Rocket 3.0 17:43:50 10° S 17:48:04 58° E 17:51:27 16° NNE
Cosmos 2026 Rocket 4.1 17:42:12 10° NNW 17:48:20 76° W 17:54:23 10° S
Lacrosse 5 rocket 2.0 17:46:35 10° NW 17:50:09 33° NNE 17:50:36 32° NE
Okean O Rocket 1.7 17:46:45 10° SSE 17:51:06 54° ENE 17:55:28 10° N
Cosmos 2208 Rocket 4.2 17:54:07 10° S 17:59:18 50° ESE 18:01:39 30° NE
CZ-4 R/B 4.3 17:56:20 10° SSE 18:00:24 63° ENE 18:04:31 10° N
Cosmos 1666 Rocket 3.5 17:56:36 10° N 18:01:05 89° E 18:05:29 10° S
Meteor 1-11 Rocket 4.1 17:57:52 10° N 18:03:07 38° ENE 18:05:46 25° ESE
H-2A R/B 2.3 17:58:02 10° S 18:03:12 69° WSW 18:08:15 10° NNW
Cosmos 1470 Rocket 3.7 17:59:58 10° N 18:04:17 47° ENE 18:08:36 10° SSE
Cosmos 2150 Rocket 4.3 17:59:25 10° N 18:04:18 40° ENE 18:04:47 39° ENE
USA 267 3.7 18:01:04 22° NE 18:05:12 54° NNW 18:11:31 10° W
Cosmos 1328 Rocket 3.5 18:01:12 10° S 18:05:35 64° E 18:07:30 32° NNE
Cosmos 1655 Rocket 4.1 18:00:09 10° N 18:06:25 53° ENE 18:12:36 10° SSE
Cosmos 2360 Rocket 3.7 18:04:15 10° N 18:07:10 20° NNE 18:07:10 20° NNE
USA 305 3.9 18:04:50 10° NW 18:08:39 31° NNE 18:08:46 31° NNE
Landsat 5 3.4 18:08:41 55° ENE 18:09:06 59° E 18:13:02 10° S
Cosmos 2180 Rocket 4.4 18:08:01 10° S 18:14:21 76° E 18:20:38 10° NNE
SKYMED 2 3.5 18:12:00 23° NNE 18:14:42 85° WNW 18:19:03 10° SSW
Cosmos 841 Rocket 4.1 18:09:44 10° SW 18:14:46 54° WNW 18:18:54 15° N
Cosmos 1666 3.0 18:12:32 10° NNW 18:16:14 64° W 18:19:54 10° S
Feng Yun 1-1 Rocket 4.3 18:10:37 10° SSE 18:16:28 65° ENE 18:22:16 10° N
Meteor 2-8 Rocket 4.3 18:11:48 10° S 18:17:55 78° E 18:24:07 10° NNE
ATLAS CENTAUR R/B 3.1 18:11:05 10° WSW 18:19:12 47° NW 18:20:43 33° NNE
Cosmos 1125 Rocket 3.6 18:17:20 10° NNW 18:22:14 51° NE 18:22:14 51° NE
Cosmos 2322 Rocket 2.8 18:23:28 10° NNW 18:27:49 38° NNE 18:27:49 38° NNE
SL-08 RB Rocket 3.7 18:29:42 10° S 18:34:21 81° WSW 18:38:59 10° NNW
Cosmos 1980 Rocket 3.4 18:29:24 10° NW 18:34:43 43° WSW 18:39:59 10° S
Cosmos 1812 4.3 18:32:06 10° SW 18:35:38 34° WNW 18:37:47 19° NNW
ATLAS 2AS CENTAUR R/B 4.3 18:30:50 10° NW 18:36:16 21° N 18:37:27 20° NNE
ISS -2.1 18:35:36 10° WNW 18:37:59 34° WSW 18:37:59 34° WSW
USA 234 4.4 18:33:10 10° SSE 18:39:14 40° SW 18:45:20 10° WNW
USA 306 4.3 18:36:58 10° NW 18:39:35 29° NNW 18:39:35 29° NNW
CZ-4C R/B 3.3 18:38:29 10° NW 18:45:46 67° WSW 18:54:11 10° SSE
SL-16 R/B 2.1 18:40:59 10° NNW 18:46:11 67° NNE 18:46:11 67° NNE
Cosmos 2082 Rocket 3.3 18:44:17 10° SW 18:49:38 41° NW 18:52:35 24° N
Cosmos 44 Rocket 3.5 18:48:45 10° NW 18:53:10 66° W 18:53:10 66° W
Cosmos 2333 Rocket 4.2 18:53:04 10° N 18:54:27 16° N 18:54:27 16° N
COSMO-SKYMED 1 4.4 19:00:37 20° NNW 19:02:35 28° WNW 19:06:17 10° SW
GEOS 3 Rocket 4.3 19:19:06 52° WNW 19:19:06 52° WNW 19:23:17 10° NW
Cosmos 1818 4.4 19:14:20 10° NW 19:19:32 47° WSW 19:19:32 47° WSW
Okean O Rocket 4.4 19:24:53 10° SW 19:27:46 17° W 19:30:40 10° NW
Lacrosse 5 rocket 4.1 19:25:29 10° WNW 19:26:12 15° WNW 19:26:12 15° WNW
BREEZE-M DEB (TANK) 4.3 19:24:37 10° SW 19:44:57 81° SW 19:44:57 81° SW
USA 267 4.4 19:48:25 33° NNW 19:48:25 33° NNW 19:53:14 10° WNW
Cosmos 2360 Rocket 4.4 19:47:33 10° NNW 19:48:57 18° NNW 19:48:57 18° NNW
Cosmos 2322 Rocket 4.4 20:07:43 10° NW 20:09:40 20° NW 20:09:40 20° NW
